This is the latest recevied weather packets stored in our database for station/object KR8N. If no packets are shown the sender has not sent any weather packets the latest 10 day(s).
| Time | Temp. | Humidity | Pressure | Rain* | Wind** | Luminosity | Snow |
|---|---|---|---|---|---|---|---|
| 1778111661 | 11.67° C | 95% | 1015.6 hPa | 0 mm | - | 3 W/m² | - |
| 1778111356 | 11.67° C | 95% | 1015.7 hPa | 0 mm | - | 4 W/m² | - |
| 1778111054 | 12.22° C | 95% | 1015.7 hPa | 1.27 mm | - | 5 W/m² | - |
| 1778110751 | 12.22° C | 95% | 1015.4 hPa | 1.27 mm | - | 4 W/m² | - |
| 1778110447 | 12.22° C | 95% | 1015.3 hPa | 0 mm | - | 7 W/m² | - |
| 1778110144 | 12.22° C | 95% | 1015.5 hPa | 0 mm | - | 8 W/m² | - |
| 1778109840 | 12.22° C | 95% | 1015.2 hPa | 0 mm | - | 7 W/m² | - |
| 1778109536 | 12.22° C | 95% | 1015.3 hPa | 0 mm | - | 8 W/m² | - |
| 1778109234 | 12.22° C | 94% | 1015.3 hPa | 0 mm | - | 8 W/m² | - |
| 1778108931 | 12.22° C | 94% | 1015.5 hPa | 0 mm | - | 10 W/m² | - |
| 1778108628 | 12.78° C | 94% | 1015.4 hPa | 0 mm | - | 8 W/m² | - |
| 1778108324 | 12.78° C | 94% | 1015 hPa | 0 mm | - | 24 W/m² | - |
| 1778108022 | 12.78° C | 95% | 1015 hPa | 0 mm | - | 38 W/m² | - |
| 1778107719 | 12.78° C | 94% | 1015.1 hPa | 0 mm | - | 29 W/m² | - |
| 1778107416 | 12.78° C | 94% | 1015.2 hPa | 0 mm | - | 43 W/m² | - |
| 1778107112 | 12.78° C | 93% | 1015.2 hPa | 0 mm | - | 30 W/m² | - |
| 1778106807 | 12.78° C | 93% | 1015.1 hPa | 0 mm | - | 20 W/m² | - |
| 1778106505 | 12.78° C | 93% | 1015 hPa | 0 mm | - | 15 W/m² | - |
| 1778106200 | 12.78° C | 93% | 1015.3 hPa | 0 mm | - | 21 W/m² | - |
| 1778105893 | 12.78° C | 93% | 1015 hPa | 0 mm | - | 66 W/m² | - |
| 1778105590 | 12.78° C | 94% | 1014.7 hPa | 0 mm | - | 62 W/m² | - |
| 1778105288 | 12.78° C | 93% | 1015.2 hPa | 0 mm | - | 71 W/m² | - |
| 1778104988 | 13.33° C | 93% | 1015.3 hPa | 0 mm | - | 77 W/m² | - |
| 1778104685 | 13.33° C | 93% | 1015.2 hPa | 0 mm | - | 59 W/m² | - |
| 1778104380 | 13.33° C | 93% | 1015.2 hPa | 1.78 mm | - | 85 W/m² | - |
* Rain latest hour (hover to see other rain measurements)
** Current wind speed in m/s (hover to see current wind gust speed)